Petersburg, AK

8:08 AM AKDT on August 21, 2017 (GMT -0800)
Johnson Petersburg

Weather History for PAPG - April, 2012

Change the Weather History Date:

Friday, April 13, 2012

  Actual Average Record
Temperature  
Mean Temperature 42 °F -  
Max Temperature 46 °F 44 °F 59 °F (2017)
Min Temperature 39 °F 31 °F 25 °F (1986)
Degree Days  
Heating Degree Days 22    
Moisture  
Dew Point 41 °F    
Average Humidity 91    
Maximum Humidity 100    
Minimum Humidity 87    
Precipitation  
Precipitation 0.00 in - - ()
Sea Level Pressure  
Sea Level Pressure 29.92 in    
Wind  
Wind Speed 1 mph (ENE)    
Max Wind Speed 6 mph    
Max Gust Speed -    
Visibility 7 miles    
Events      
Averages and records for this station are not official NWS values.
T = Trace of Precipitation, MM = Missing Value Source: NWS Daily Summary

Daily Weather History Graph

Daily Weather History Graph

Search for Another Location

Airport or City:

Trip Planner

Search our weather history database for the weather conditions in past years. The results will help you decide how hot, cold, wet, or windy it might be!

Date:

Astronomy

Apr. 13, 2012 Rise Set
Actual Time 5:47 AM AKDT 7:57 PM AKDT
Civil Twilight 5:06 AM AKDT 8:39 PM AKDT
Nautical Twilight 4:14 AM AKDT 9:31 PM AKDT
Astronomical Twilight 3:11 AM AKDT 10:36 PM AKDT
Moon 3:01 AM AKDT (4/13) 11:33 AM AKDT (4/13)
Length of Visible Light 15h 32m
Length of Day
14h 10m
Last Quarter, 46% of the Moon is Illuminated
Apr 13
Last Quarter
Apr 20
New
Apr 29
First Quarter
May 5
Full
May 12
Last Quarter

Hourly Weather History & Observations

Time (AKDT) Temp. Windchill Dew Point Humidity Pressure Visibility Wind Dir Wind Speed Gust Speed Precip Events Conditions
12:16 AM 42.8 °F - 39.2 °F 87% 29.86 in 10.0 mi Calm Calm - N/A   Overcast
12:36 AM 42.8 °F 41.1 °F 39.2 °F 87% 29.86 in 10.0 mi WSW 3.5 mph - N/A   Overcast
12:56 AM 42.8 °F - 39.2 °F 87% 29.87 in 10.0 mi Calm Calm - N/A   Overcast
1:16 AM 41.0 °F 39.0 °F 39.2 °F 93% 29.87 in 10.0 mi WSW 3.5 mph - N/A   Overcast
1:36 AM 41.0 °F 39.0 °F 39.2 °F 93% 29.87 in 7.0 mi WSW 3.5 mph - N/A   Overcast
1:56 AM 41.0 °F - 39.2 °F 93% 29.88 in 9.0 mi Calm Calm - N/A   Mostly Cloudy
2:16 AM 41.0 °F - 39.2 °F 93% 29.88 in 5.0 mi Calm Calm - N/A   Partly Cloudy
2:36 AM 41.0 °F - 39.2 °F 93% 29.88 in 1.0 mi Calm Calm - N/A   Overcast
2:56 AM 41.0 °F - 39.2 °F 93% 29.88 in 0.8 mi Calm Calm - N/A   Overcast
3:16 AM 41.0 °F - 39.2 °F 93% 29.88 in 0.8 mi Calm Calm - N/A   Overcast
3:36 AM 41.0 °F - 39.2 °F 93% 29.89 in 0.8 mi Calm Calm - N/A   Overcast
3:56 AM 39.2 °F 37.0 °F 37.4 °F 93% 29.89 in 1.0 mi WSW 3.5 mph - N/A   Overcast
4:16 AM 41.0 °F - 39.2 °F 93% 29.89 in 8.0 mi Calm Calm - N/A   Overcast
4:36 AM 41.0 °F 39.0 °F 39.2 °F 93% 29.89 in 10.0 mi WSW 3.5 mph - N/A   Overcast
4:56 AM 41.0 °F - 39.2 °F 93% 29.89 in 7.0 mi Calm Calm - N/A   Overcast
5:16 AM 41.0 °F 39.0 °F 39.2 °F 93% 29.90 in 9.0 mi West 3.5 mph - N/A   Overcast
5:36 AM 41.0 °F - 39.2 °F 93% 29.90 in 8.0 mi Calm Calm - N/A   Overcast
5:56 AM 41.0 °F - 39.2 °F 93% 29.91 in 7.0 mi Calm Calm - N/A   Mostly Cloudy
6:16 AM 41.0 °F - 39.2 °F 93% 29.91 in 3.0 mi Calm Calm - N/A   Overcast
6:36 AM 41.0 °F - 39.2 °F 93% 29.91 in 3.0 mi Calm Calm - N/A   Overcast
6:56 AM 41.0 °F - 39.2 °F 93% 29.91 in 4.0 mi Calm Calm - N/A   Overcast
7:16 AM 41.0 °F - 39.2 °F 93% 29.91 in 4.0 mi Calm Calm - N/A   Overcast
7:36 AM 41.0 °F - 39.2 °F 93% 29.91 in 4.0 mi Calm Calm - N/A   Overcast
7:56 AM 42.8 °F - 39.2 °F 87% 29.91 in 7.0 mi Calm Calm - N/A   Overcast
8:16 AM 42.8 °F - 39.2 °F 87% 29.91 in 7.0 mi Calm Calm - N/A   Overcast
8:36 AM 42.8 °F - 39.2 °F 87% 29.91 in 7.0 mi Calm Calm - N/A   Overcast
8:56 AM 42.8 °F - 41.0 °F 93% 29.92 in 7.0 mi Calm Calm - N/A   Overcast
9:16 AM 42.8 °F - 41.0 °F 93% 29.92 in 7.0 mi Calm Calm - N/A   Overcast
9:36 AM 42.8 °F - 41.0 °F 93% 29.92 in 7.0 mi Calm Calm - N/A   Overcast
9:56 AM 42.8 °F 41.1 °F 42.8 °F 100% 29.93 in 7.0 mi ENE 3.5 mph - N/A   Overcast
10:16 AM 42.8 °F 41.1 °F 41.0 °F 93% 29.93 in 7.0 mi East 3.5 mph - N/A   Overcast
10:36 AM 42.8 °F - 41.0 °F 93% 29.93 in 7.0 mi Calm Calm - N/A   Overcast
10:56 AM 44.6 °F - 42.8 °F 93% 29.94 in 7.0 mi Calm Calm - N/A   Overcast
11:16 AM 44.6 °F - 42.8 °F 93% 29.94 in 7.0 mi Calm Calm - N/A   Overcast
11:36 AM 44.6 °F - 42.8 °F 93% 29.94 in 7.0 mi Calm Calm - N/A   Overcast
11:56 AM 44.6 °F 43.1 °F 42.8 °F 93% 29.94 in 7.0 mi ENE 3.5 mph - N/A   Overcast
12:16 PM 44.6 °F 43.1 °F 42.8 °F 93% 29.94 in 7.0 mi NNE 3.5 mph - N/A   Overcast
12:36 PM 44.6 °F - 42.8 °F 93% 29.94 in 7.0 mi Calm Calm - N/A   Overcast
12:56 PM 44.6 °F 41.4 °F 42.8 °F 93% 29.94 in 7.0 mi East 5.8 mph - N/A   Overcast
1:16 PM 46.4 °F 44.3 °F 42.8 °F 87% 29.95 in 7.0 mi East 4.6 mph - N/A   Overcast
1:36 PM 46.4 °F 44.3 °F 42.8 °F 87% 29.94 in 7.0 mi NE 4.6 mph - N/A   Overcast
1:56 PM 46.4 °F 43.5 °F 42.8 °F 87% 29.94 in 10.0 mi ENE 5.8 mph - N/A   Mostly Cloudy
2:16 PM 46.4 °F 43.5 °F 42.8 °F 87% 29.94 in 10.0 mi East 5.8 mph - N/A   Mostly Cloudy
2:36 PM 46.4 °F 43.5 °F 42.8 °F 87% 29.94 in 10.0 mi ENE 5.8 mph - N/A   Mostly Cloudy
2:56 PM 44.6 °F 43.1 °F 42.8 °F 93% 29.94 in 10.0 mi ENE 3.5 mph - N/A   Overcast
3:16 PM 46.4 °F 45.2 °F 42.8 °F 87% 29.94 in 10.0 mi ENE 3.5 mph - N/A   Overcast
3:36 PM 46.4 °F 45.2 °F 42.8 °F 87% 29.94 in 10.0 mi ENE 3.5 mph - N/A   Overcast
3:56 PM 46.4 °F 44.3 °F 42.8 °F 87% 29.94 in 10.0 mi ENE 4.6 mph - N/A   Overcast
4:16 PM 46.4 °F - 42.8 °F 87% 29.94 in 10.0 mi Calm Calm - N/A   Overcast
4:36 PM 46.4 °F - 42.8 °F 87% 29.94 in 10.0 mi Calm Calm - N/A   Overcast
4:56 PM 46.4 °F - 42.8 °F 87% 29.94 in 10.0 mi Calm Calm - N/A   Overcast
5:16 PM 46.4 °F - 42.8 °F 87% 29.93 in 10.0 mi Calm Calm - N/A   Overcast
5:36 PM 46.4 °F - 42.8 °F 87% 29.93 in 10.0 mi Calm Calm - N/A   Overcast
5:56 PM 46.4 °F - 42.8 °F 87% 29.93 in 10.0 mi Calm Calm - N/A   Overcast
6:16 PM 46.4 °F - 42.8 °F 87% 29.93 in 10.0 mi Calm Calm - N/A   Overcast
6:36 PM 46.4 °F - 42.8 °F 87% 29.93 in 10.0 mi Calm Calm - N/A   Overcast
6:56 PM 44.6 °F - 42.8 °F 93% 29.93 in 7.0 mi Calm Calm - N/A   Overcast
7:16 PM 44.6 °F - 42.8 °F 93% 29.93 in 7.0 mi Calm Calm - N/A   Overcast
7:36 PM 44.6 °F - 42.8 °F 93% 29.93 in 7.0 mi Calm Calm - N/A   Overcast
7:56 PM 44.6 °F - 42.8 °F 93% 29.94 in 7.0 mi Calm Calm - N/A   Overcast
8:16 PM 44.6 °F - 41.0 °F 87% 29.94 in 7.0 mi Calm Calm - N/A   Overcast
8:36 PM 42.8 °F - 39.2 °F 87% 29.94 in 7.0 mi Calm Calm - N/A   Overcast
8:56 PM 42.8 °F - 41.0 °F 93% 29.94 in 7.0 mi Calm Calm - N/A   Overcast
9:16 PM 44.6 °F - 42.8 °F 93% 29.94 in 7.0 mi Calm Calm - N/A   Overcast
9:36 PM 42.8 °F - 39.2 °F 87% 29.95 in 7.0 mi Calm Calm - N/A   Overcast
9:56 PM 42.8 °F - 39.2 °F 87% 29.95 in 7.0 mi Calm Calm - N/A   Overcast
10:16 PM 42.8 °F - 41.0 °F 93% 29.95 in 10.0 mi Calm Calm - N/A   Overcast
10:36 PM 42.8 °F - 39.2 °F 87% 29.95 in 8.0 mi Calm Calm - N/A   Overcast
10:56 PM 42.8 °F - 39.2 °F 87% 29.96 in 10.0 mi Calm Calm - N/A   Overcast
11:16 PM 42.8 °F - 41.0 °F 93% 29.95 in 2.5 mi Calm Calm - N/A   Overcast
11:36 PM 42.8 °F - 39.2 °F 87% 29.96 in 5.0 mi Calm Calm - N/A   Overcast
11:56 PM 42.8 °F - 39.2 °F 87% 29.96 in 10.0 mi Calm Calm - N/A   Overcast